Location: Rounton
(54.4000°N, 1.3500°W)
Time: 22:18:37
(UTC+00:00)

Vanguard 1 - Pass Details

Date: 29 November 2021
Orbit: 652 x 3830 km, 34.2° (Epoch: 16 January)

Event Time Altitude Azimuth Distance (km) Brightness Sun altitude
Rises 03:31:06 0° 249° (WSW) 7,970 - -37.9°
Reaches altitude 10° 03:37:19 10° 243° (WSW) 6,856 - -37.0°
Exits shadow 03:50:51 33° 212° (SSW) 4,595 13.0 -35.1°
Maximum altitude 03:55:49 37° 186° (S) 4,070 12.9 -34.4°
Drops below altitude 10° 04:08:19 10° 126° (SE) 4,687 14.0 -32.6°
Sets 04:11:37 0° 118° (ESE) 5,306 14.5 -32.1°
